Regional Weather Roundup
Issued by NWS

Home | Current Version | Previous Version | Text Only | Print | Product List | Glossary Off
Versions: 1 2 3 4 5 6 7 8 9 10 11 12 13 14 15 16 17 18 19 20 21 22 23 24 25 26 27 28 29 30 31 32 33 34 35 36 37 38 39 40 41 42 43 44 45 46 47 48 49 50

000
ASUS45 KSLC 271510
RWRUT

UTAH REGIONAL WEATHER ROUNDUP
NATIONAL WEATHER SERVICE SALT LAKE CITY UT
800 AM MST FRI FEB 27 2015

UTZ001>011-023>025-271600-

NORTHERN UTAH

CITY           SKY/WX    TMP DP  RH WIND       PRES   REMARKS
BRIGHAM CITY   CLOUDY    31  26  81 CALM      29.83F
HILL AFB       CLOUDY    30  20  65 SE12      29.81S WCI  20
LOGAN          FLURRIES  27  23  85 CALM      29.82F
OGDEN          CLOUDY    31  21  66 S7        29.81F WCI  24
PROVO AIRPORT  MOCLDY    36  25  64 CALM      29.85S
SALT LAKE CITY CLOUDY    33  24  69 S8        29.83R WCI  26
VERNAL         CLOUDY    23  10  57 NE6       29.89R WCI  16
WENDOVER       CLOUDY    34  27  75 NE3       29.82S
HEBER CITY     CLOUDY    23  19  86 CALM      29.83S
WEST JORDAN    CLOUDY    30  28  93 S5        29.83S WCI  25

$$

UTZ012>022-026-027-271600-

SOUTHERN/CENTRAL UTAH

CITY           SKY/WX    TMP DP  RH WIND       PRES   REMARKS
BLANDING       CLOUDY    26  26  99 CALM      29.93S
BRYCE CANYON   PTSUNNY   13  10  88 CALM      29.81S
CEDAR CITY     CLOUDY    23  21  92 CALM      29.80F
DELTA          CLOUDY    29  25  86 S3        29.83S
HANKSVILLE     CLOUDY    28  28 100 NE3       29.88R VSB<1/4
MILFORD        PTCLDY    23  19  85 S5        29.82F WCI  17
MOAB/CYNLANDS  CLOUDY    33  31  92 N6        29.83R WCI  28
PRICE          CLOUDY    28  19  69 NE9       29.81S WCI  19
ST GEORGE      CLOUDY    43  30  61 SE3       29.83S
KANAB            N/A     34  23  64 NW8       29.85S WCI  27

$$

REGIONAL REPORTS     COLORADO/ARIZONA

CITY           SKY/WX    TMP DP  RH WIND       PRES   REMARKS
CRAIG, CO      CLOUDY    11   7  84 W5        29.90R WCI   3
GRAND JUNCTION LGT SNOW  28  28 100 S5        29.84R FOG     WCI  23
RIFLE          CLOUDY    25  15  66 NW3       29.85R
MONTROSE       CLOUDY    24  19  81 CALM      29.84R
CORTEZ         CLOUDY    27  25  92 S8        29.87R WCI  19
PAGE, AZ       CLOUDY    39  32  76 VRB3      29.83R
GRAND CANYON   CLOUDY    29  25  85 CALM      29.82R
KINGMAN        PTCLDY    42  29  59 SE7       29.78R
FLAGSTAFF      CLOUDY    26  19  74 CALM      29.82R

$$

REGIONAL REPORTS    NEVADA/IDAHO/WYOMING

CITY           SKY/WX    TMP DP  RH WIND       PRES   REMARKS
LAS VEGAS, NV  PTCLDY    48  26  42 S9        29.76S
ELY            PTCLDY    17  13  84 S12       29.80F WCI   4
ELKO           CLOUDY    26  24  92 CALM      29.78S
POCATELLO, ID  MIX PCPN  30  26  85 N8        29.80S WCI  22
BURLEY         MOCLDY    32  29  88 CALM      29.78S
EVANSTON, WY   CLOUDY    12   9  87 NE6       29.80R WCI   3
ROCK SPRINGS   MOSUNNY    3  -1  83 S3        29.86R

$$


USA.gov is the U.S. government's official web portal to all federal, state and local government web resources and services.